Simultaneous Nadir Overpasses (SNOs) Predictions

Prediction of SNOs between METOP-A and TERRA Satellite Orbit:

Table of predicted SNOs for the next 14.0 days since TLE Epoch: 6/27/2015
Index Date (METOP-A) Time (METOP-A) Lat,Lon (METOP-A) SZA (METOP-A ) Date (TERRA) Time (TERRA) Lat,Lon (TERRA) SZA (TERRA ) Distance(km) Time Diff (sec)
1 06/28/2015 02:03:37 81.35,-162.77 60.99 06/28/2015 02:03:44 81.35,-162.61 61.01 2.71 7
2 06/28/2015 02:54:17 -81.35, 4.80 118.99 06/28/2015 02:53:11 -81.35, 4.91 119.01 1.84 66
3 06/30/2015 21:37:56 81.35, -96.28 61.13 06/30/2015 21:38:01 81.35, -96.17 61.15 2.00 5
4 06/30/2015 22:28:36 -81.35, 71.32 118.84 06/30/2015 22:27:28 -81.35, 71.38 118.87 0.97 68
5 07/03/2015 17:12:14 81.35, -29.84 61.32 07/03/2015 17:12:17 81.35, -29.86 61.31 0.44 3
6 07/03/2015 18:02:54 -81.35, 137.81 118.65 07/03/2015 18:01:44 -81.34, 137.72 118.70 1.67 70
7 07/06/2015 11:55:55 -81.34,-131.77 118.58 07/06/2015 11:57:09 -81.31,-131.76 118.56 2.80 74
8 07/06/2015 12:46:33 81.35, 36.57 61.56 07/06/2015 12:46:33 81.35, 36.70 61.57 2.21 0
9 07/06/2015 13:37:13 -81.35,-155.74 118.40 07/06/2015 13:36:00 -81.35,-155.68 118.43 0.88 73
10 07/09/2015 07:30:12 -81.35, -64.57 118.19 07/09/2015 07:31:23 -81.35, -64.53 118.15 0.97 71
11 07/09/2015 08:20:52 81.35, 102.95 61.84 07/09/2015 08:20:49 81.35, 103.13 61.87 3.15 3




NCC Satellite Simultaneous Nadir Overpasses (SNOs) Prediction Service
